Find Intelsat IS-29e

NORAD ID: 41308 Int'l Des: 2016-004 Owner: INTELU Country: US operational
MEOCIRCULAR

現在のビュー

3D地球を読み込み中...

Intelsat IS-29eについて

説明を読み込み中...

次回通過

Passes for default location (London). Set your location on the main map for personalized predictions.

高度履歴

Loading altitude history...

軌道要素

1 41308U 16004A 26149.18516676 -.00000112 00000-0 00000+0 0 9993
2 41308 6.4538 70.5422 0001540 35.7677 184.0569 1.00613759 38083
Epoch: May 29, 2026 • Age: 26 hours

現在のステータス

高度 35696.5 km
速度 3.08 km/s
衛星直下点 -6.28°S, 21.75°W
打ち上げ日 Jan 27, 2016
運用期間 10.3 years
タイプ communications

技術仕様

分類 Payload
質量 6552.00 kg
乾燥質量 2946.00 kg
総質量 6552.00 kg
長さ 7.50 m
直径 3.00 m
スパン 44.00 m
形状 Box + 2 panels
製造者 BOES
バスタイプ BSS-702MP
フェーズステータス In Orbit
所有者/国 INTELU/US

Most Searched